Probability
24 21 19 17 14 13 15 16 15 15 14 11 9 9 9 9 8 8 10 10 7 5 6 8 9 11 12 12 12 13 15 17 14 12 10 7 5 4 3 4 3 1 0
22 21 19 18 17 17 19 20 18 19 18 15 12 10 10 10 9 9 12 12 9 6 7 9 10 11 12 12 13 15 15 16 15 12 10 7 5 4 3 3 3 1 0
22 22 20 22 24 25 27 26 23 24 23 21 19 16 14 13 12 11 12 13 11 7 8 12 14 13 12 12 15 17 18 18 16 12 9 8 6 4 3 3 3 2 1
22 22 22 25 30 31 30 29 27 26 27 28 26 23 21 18 15 12 11 13 14 11 10 13 15 12 10 10 12 15 18 19 16 12 9 8 8 5 3 3 3 3 3
19 20 21 24 29 31 30 28 28 28 28 27 24 22 22 19 16 12 10 12 15 13 9 10 11 9 7 7 9 11 14 16 15 12 9 9 8 5 2 1 2 2 2
14 15 18 20 23 25 26 26 26 25 24 22 16 15 17 16 15 13 10 9 10 9 8 9 9 8 7 7 8 9 10 11 12 11 11 11 9 5 3 2 1 1 1
10 12 14 15 17 18 19 19 20 19 20 21 17 13 12 12 11 12 10 7 6 6 8 10 11 11 10 9 8 7 8 8 8 8 10 12 10 7 5 4 2 1 1
9 9 11 12 12 13 13 14 15 15 18 22 22 17 11 8 9 9 9 7 7 9 11 13 13 12 12 11 9 7 6 5 3 3 6 8 9 9 8 6 3 2 2
8 8 9 10 10 10 11 12 13 13 16 20 22 19 13 11 9 8 8 9 10 13 15 14 13 12 11 11 10 6 4 2 1 2 4 6 6 8 10 8 5 4 4
5 6 7 8 9 9 11 11 10 10 13 16 16 16 16 15 12 9 8 8 10 13 14 12 12 12 11 11 8 4 1 0 1 3 5 6 6 7 9 7 5 5 6
4 4 5 6 7 8 8 9 9 10 11 12 12 13 15 15 12 9 7 6 8 10 10 10 10 11 11 10 7 3 0 0 0 2 4 5 6 7 7 6 5 5 6
5 4 4 5 6 7 7 7 9 10 10 10 11 13 13 11 9 8 7 6 6 6 7 8 8 8 8 8 6 3 1 0 0 1 2 3 4 5 6 6 6 6 6
6 5 5 5 6 6 6 7 8 9 10 10 11 11 11 9 7 6 6 6 6 4 5 6 7 7 7 6 4 2 1 0 0 0 1 1 2 2 4 5 5 6 6
6 6 6 6 6 6 7 8 8 9 10 10 10 10 10 8 6 5 6 7 7 5 5 6 7 6 6 5 3 1 0 0 0 0 0 0 0 1 2 3 4 4 4
4 4 5 6 6 6 7 9 9 9 11 10 9 8 8 6 5 5 6 7 7 7 6 7 6 6 5 3 2 1 0 0 0 0 0 0 0 0 1 2 2 2 1
3 3 2 3 4 5 5 7 7 8 8 7 5 4 4 3 3 4 5 5 6 7 7 5 4 4 3 2 1 2 1 1 1 0 0 0 0 0 0 1 1 0 0
3 2 1 1 1 2 2 2 3 3 3 2 1 1 1 1 1 3 4 4 4 6 5 3 2 1 1 1 1 2 2 2 2 1 0 0 0 0 0 0 0 0 0
3 2 1 0 0 0 0 0 0 0 0 0 0 0 0 0 1 2 2 3 3 4 4 2 1 0 0 0 0 1 1 1 2 1 0 0 0 0 0 0 0 0 0
2 2 1 1 0 0 0 0 0 0 0 0 0 0 0 0 0 1 1 1 2 3 3 2 1 0 0 0 0 0 0 0 0 0 0 0 0 0 0 0 0 0 0
1 2 2 2 1 0 0 0 0 0 0 0 0 0 0 0 0 0 0 0 1 1 1 1 0 0 0 0 0 0 0 0 0 0 0 0 0 0 0 0 0 0 0
1 2 2 2 1 0 0 0 0 0 0 0 0 0 0 0 0 0 0 0 0 0 0 0 0 0 0 0 0 1 0 0 0 0 0 0 0 0 0 0 0 0 0
2 1 1 1 1 0 0 0 0 0 0 0 0 0 0 0 0 0 0 0 0 0 0 0 0 0 0 0 0 0 0 0 0 0 0 0 0 0 0 0 0 0 0
2 1 1 2 2 1 1 0 0 0 0 0 0 0 0 0 0 0 0 0 0 0 0 0 0 0 0 0 0 0 0 0 0 0 0 1 0 0 0 0 0 0 0
3 3 3 3 3 2 1 0 0 0 0 0 0 0 0 0 0 0 0 0 0 0 0 0 0 0 0 0 0 0 0 0 0 0 0 0 0 0 0 0 0 0 0
3 3 3 3 3 2 1 0 0 0 0 0 0 0 0 0 0 0 0 0 0 0 0 0 0 0 0 0 0 0 0 0 0 0 0 0 0 0 0 0 0 0 0
3 3 3 3 3 2 1 0 0 0 0 0 0 0 0 0 0 0 0 0 0 0 0 0 0 0 0 0 0 0 0 0 0 0 1 1 1 0 0 0 0 0 0
Wind_Speed
3 3 3 3 4 4 4 5 5 6 6 7 7 6 6 7 7 7 4 4 7 9 10 10 10 10 11 12 13 14 14 15 14 14 13 13 13 13 13 13 13 13 13
3 3 3 3 4 4 5 5 6 5 5 5 7 6 7 7 7 7 7 5 7 8 10 10 10 11 12 12 13 13 14 15 15 14 14 13 13 13 13 13 12 13 13
3 4 3 3 4 4 5 5 6 5 5 6 7 7 6 7 6 6 6 6 5 7 7 7 8 9 10 11 12 13 13 13 14 14 14 15 14 14 13 13 13 12 12
3 4 3 3 4 4 4 4 5 5 5 5 5 5 5 4 6 6 6 5 5 4 4 4 5 7 9 10 11 12 11 11 12 13 14 14 14 14 14 14 13 13 12
3 3 3 3 4 4 4 5 4 5 5 5 6 5 5 5 5 5 6 6 5 5 4 3 5 7 8 9 9 10 10 10 11 11 12 13 13 13 13 13 13 12 12
3 4 3 3 4 4 4 4 5 5 5 6 7 6 5 5 5 5 5 5 5 6 5 5 4 5 7 8 9 9 9 10 10 11 10 11 12 12 12 12 12 12 12
3 3 4 3 4 4 5 6 5 6 6 5 5 6 5 6 5 3 4 5 5 5 4 4 4 4 4 9 10 9 9 9 9 10 9 9 11 12 12 11 12 12 12
3 3 3 4 4 4 5 5 5 5 5 4 4 5 5 4 3 3 3 3 4 4 4 4 4 4 5 4 5 8 8 9 9 9 9 8 9 10 12 12 11 11 11
2 3 4 4 4 5 4 5 5 5 5 4 3 3 4 4 4 3 3 3 3 3 4 3 4 4 5 4 4 6 7 7 8 9 9 9 9 9 11 13 12 12 12
2 2 3 3 4 4 4 5 4 4 5 4 3 3 4 4 4 4 3 3 3 3 3 4 4 4 4 4 3 3 5 6 7 8 9 9 10 10 11 12 13 13 13
2 2 3 3 4 4 4 5 4 4 4 4 4 4 4 4 5 5 5 4 3 3 3 3 4 3 3 3 3 3 4 5 6 7 8 9 9 10 10 12 13 13 13
1 3 3 4 4 4 4 4 4 4 4 5 4 4 4 3 4 4 5 4 4 3 3 3 4 4 3 3 4 0 2 5 6 7 8 9 9 9 10 11 13 13 13
2 3 4 4 4 4 4 4 4 4 4 4 4 4 4 4 4 4 5 5 5 4 3 3 3 3 3 3 2 2 4 5 6 7 7 8 8 8 10 10 11 13 13
2 3 4 4 4 5 5 4 4 4 3 4 4 4 4 4 4 4 5 5 5 5 4 4 2 3 3 3 1 3 4 5 6 6 6 7 8 9 10 10 10 11 12
2 3 4 4 4 5 5 5 3 4 4 4 4 5 4 4 3 4 4 5 5 5 5 3 3 3 3 3 2 4 4 4 6 7 7 8 8 8 10 10 9 9 10
2 3 3 4 4 4 4 5 4 4 4 4 4 5 5 4 3 4 4 4 5 6 5 3 3 3 3 3 3 4 4 4 7 8 7 7 7 8 8 9 10 10 10
3 3 3 3 3 4 4 4 5 4 4 4 5 4 5 5 4 4 3 4 4 4 5 4 3 2 4 5 3 4 4 4 4 8 8 7 6 6 7 8 10 10 10
3 3 4 4 4 4 4 4 4 4 4 5 5 5 6 5 4 4 4 4 4 4 5 5 4 3 4 4 4 4 4 4 3 5 8 7 7 7 7 9 9 10 10
3 3 4 4 4 4 4 4 4 5 5 5 5 5 5 6 5 4 5 4 4 4 3 4 4 3 3 3 3 4 4 3 4 4 7 8 8 8 8 8 9 9 9
3 3 3 3 4 4 4 5 5 5 5 5 5 5 5 5 5 5 4 4 4 5 4 4 4 4 3 3 3 3 3 3 3 3 3 4 6 9 10 10 10 10 10
3 3 3 3 3 3 3 5 6 6 5 6 5 5 4 4 5 5 5 5 5 5 4 4 4 4 3 3 3 3 4 3 3 4 3 4 5 6 7 10 12 11 10
3 3 3 3 3 3 3 5 7 6 6 6 6 6 5 3 3 5 6 6 6 6 6 6 5 4 4 4 3 4 4 4 4 3 4 4 4 5 5 5 8 11 11
2 3 4 4 4 3 2 5 6 7 7 6 6 6 6 5 5 6 5 7 7 8 7 7 7 7 6 4 4 5 4 5 5 4 5 5 5 5 5 4 10 11 11
2 3 4 4 4 3 2 4 7 7 6 6 6 6 5 6 5 7 7 6 6 5 5 6 6 7 6 5 5 5 5 5 6 5 6 6 5 5 5 4 9 12 12
3 4 4 4 4 4 2 4 7 7 5 6 5 5 5 6 3 5 7 7 7 6 4 6 6 7 7 7 6 5 5 5 5 5 4 5 5 5 5 5 6 13 13
3 4 4 4 5 5 2 4 6 6 6 6 5 4 1 3 4 5 7 7 8 7 7 5 5 7 9 9 10 8 7 6 6 5 3 4 5 4 5 4 4 6 9
Wind_Direction
253 258 260 272 277 278 262 260 263 264 262 258 261 266 272 273 274 270 263 219 240 255 254 249 243 244 243 242 238 232 227 224 222 220 218 217 219 219 217 217 215 213 213
269 271 266 269 278 280 283 278 275 269 265 264 261 261 264 271 270 270 271 247 224 238 249 249 244 246 244 241 238 234 229 225 222 219 218 218 219 220 219 219 219 218 215
266 265 270 271 282 280 278 276 279 274 263 260 259 260 260 263 269 270 274 272 254 224 231 242 244 246 245 241 235 233 230 225 223 222 221 218 217 219 221 220 219 219 216
275 271 276 282 290 287 286 283 281 281 276 274 270 266 263 260 261 266 268 264 270 272 233 229 245 248 246 243 236 231 228 224 223 223 222 219 218 218 219 219 218 218 217
280 275 278 289 286 287 291 290 290 288 285 280 270 258 256 254 256 259 262 263 263 268 273 225 232 241 241 240 238 232 228 223 220 221 221 219 217 217 217 215 215 216 216
299 293 283 290 288 290 291 291 289 283 282 284 281 272 256 253 254 254 258 258 254 254 256 264 246 226 227 235 235 233 232 229 225 222 224 222 219 215 214 215 214 215 217
320 303 305 304 298 299 296 296 293 286 281 285 282 277 255 242 245 252 259 268 259 256 256 261 263 263 233 219 221 226 230 233 233 230 225 223 220 218 216 215 216 216 216
322 310 326 311 311 303 295 296 294 287 285 282 282 292 284 251 228 239 259 265 271 268 254 245 258 261 264 249 207 211 223 230 237 236 229 223 220 219 217 216 214 214 214
344 349 333 325 321 307 307 295 285 286 287 286 281 287 287 286 298 236 238 256 270 272 271 274 264 266 263 263 245 205 206 222 231 233 230 226 225 221 221 219 217 216 217
356 355 338 336 324 320 316 299 310 297 288 287 279 264 270 290 285 284 264 265 277 280 287 291 291 286 279 267 243 206 199 219 229 233 232 229 228 225 226 224 219 218 219
5 3 338 327 320 319 325 316 308 299 296 294 293 284 274 266 265 270 279 282 277 275 283 280 284 283 281 271 259 232 196 215 226 232 234 233 231 229 229 225 221 217 218
12 11 347 336 324 331 324 318 313 306 304 301 294 286 281 275 269 270 271 272 281 282 275 268 269 268 269 264 259 115 205 222 225 230 233 233 232 234 235 230 224 220 218
5 7 349 335 332 328 319 318 310 312 309 306 296 294 290 284 280 279 275 275 279 284 273 261 262 267 260 252 247 203 218 216 220 224 228 227 228 234 232 230 225 222 219
1 355 337 332 329 324 321 319 305 310 308 305 305 301 288 282 281 276 278 277 273 271 264 268 267 262 271 264 251 240 242 208 215 223 227 227 228 234 232 228 226 221 218
348 343 330 330 330 328 324 315 324 321 320 309 313 307 295 300 290 290 280 274 276 278 279 270 263 261 263 261 234 256 259 210 210 219 222 224 225 230 231 225 221 217 214
345 325 330 330 330 334 334 327 328 340 330 329 324 329 315 310 316 299 292 286 276 274 280 282 274 281 284 278 239 257 258 208 213 219 220 221 224 225 224 218 214 211 212
326 322 326 326 329 333 336 333 334 337 334 334 327 325 320 314 308 309 301 292 282 278 277 285 284 287 280 272 273 267 259 248 221 199 206 215 221 221 219 215 212 209 210
312 323 322 323 325 334 336 331 330 338 330 329 327 323 319 310 308 298 296 291 289 285 276 288 292 291 283 274 268 267 262 253 254 191 197 210 220 221 218 215 212 209 208
310 316 318 322 327 331 333 330 329 329 329 321 318 318 316 314 306 306 299 295 294 289 280 276 282 292 283 278 277 266 260 257 260 210 199 207 215 221 217 213 211 209 207
305 310 310 318 322 326 333 331 327 327 325 322 317 315 316 320 319 315 301 294 295 297 286 276 278 277 272 274 267 265 267 251 261 264 238 222 210 211 215 211 209 209 207
304 310 307 310 312 314 343 334 321 318 319 316 314 313 319 327 329 312 310 314 306 295 290 282 276 277 282 283 281 289 283 278 265 256 252 237 220 222 211 210 209 207 206
308 308 302 301 310 334 11 328 307 306 307 310 316 318 312 292 290 262 268 282 294 294 298 292 286 290 289 287 293 284 281 280 277 260 263 259 247 242 233 224 192 189 199
295 299 299 302 313 336 323 308 305 296 298 307 312 313 314 327 315 310 281 248 251 243 252 276 284 288 286 287 286 279 274 278 284 282 269 264 255 253 242 215 174 187 198
291 295 297 302 302 313 304 302 305 285 292 299 299 299 302 309 328 324 310 301 296 290 264 254 273 279 284 288 277 276 277 272 267 258 247 258 255 254 247 220 183 194 203
284 285 289 296 298 303 293 291 300 297 300 304 303 304 305 309 336 319 302 304 304 297 261 240 261 272 278 273 272 270 262 260 266 262 239 255 262 259 255 239 203 197 204
274 284 298 299 299 301 302 288 294 295 308 309 307 302 293 294 318 315 301 302 302 306 309 297 264 251 248 238 225 238 258 269 272 268 237 245 259 261 260 241 219 202 209